Time,TemperatureF,DewpointF,PressureIn,WindDirection,WindDirectionDegrees,WindSpeedMPH,WindSpeedGustMPH,Humidity,HourlyPrecipIn,Conditions,Clouds,dailyrainin,SoftwareType,DateUTC
2013-01-10 00:00:00,33.6,29.9,30.52,West,273,2.0,3.0,86,0.00,,CLR,0.05,VWS V14.01,2013-01-10 05:00:00,
2013-01-10 00:02:00,33.7,30.0,30.52,West,273,1.0,1.0,86,0.00,,CLR,0.00,VWS V14.01,2013-01-10 05:02:00,
2013-01-10 00:03:00,33.7,30.0,30.52,West,273,1.0,2.0,86,0.00,,CLR,0.00,VWS V14.01,2013-01-10 05:03:00,
2013-01-10 00:08:00,33.8,29.8,30.52,West,273,1.0,2.0,85,0.00,,CLR,0.00,VWS V14.01,2013-01-10 05:08:00,
2013-01-10 00:13:00,33.9,29.9,30.52,West,273,0.0,2.0,85,0.00,,CLR,0.00,VWS V14.01,2013-01-10 05:13:00,
2013-01-10 00:18:00,33.6,29.3,30.52,West,273,0.0,2.0,84,0.00,,CLR,0.00,VWS V14.01,2013-01-10 05:18:00,
2013-01-10 00:23:00,32.6,28.3,30.52,West,273,0.0,2.0,84,0.00,,CLR,0.00,VWS V14.01,2013-01-10 05:23:00,
2013-01-10 00:28:00,32.1,28.7,30.53,West,273,0.0,2.0,87,0.00,,CLR,0.00,VWS V14.01,2013-01-10 05:28:00,
2013-01-10 00:33:00,31.8,28.4,30.53,West,273,0.0,0.0,87,0.00,,CLR,0.00,VWS V14.01,2013-01-10 05:33:00,
2013-01-10 00:38:00,32.0,29.1,30.53,West,273,1.0,2.0,89,0.00,,CLR,0.00,VWS V14.01,2013-01-10 05:38:00,
2013-01-10 00:43:00,32.4,29.2,30.54,West,273,1.0,2.0,88,0.00,,CLR,0.00,VWS V14.01,2013-01-10 05:43:00,
2013-01-10 00:48:00,32.6,29.5,30.54,West,273,0.0,2.0,88,0.00,,CLR,0.00,VWS V14.01,2013-01-10 05:48:00,
2013-01-10 00:53:00,32.7,29.5,30.54,West,273,0.0,2.0,88,0.00,,CLR,0.00,VWS V14.01,2013-01-10 05:53:00,
2013-01-10 00:58:00,32.5,29.4,30.54,West,273,0.0,2.0,88,0.00,,CLR,0.00,VWS V14.01,2013-01-10 05:58:00,
2013-01-10 01:03:00,32.3,29.1,30.54,West,273,0.0,0.0,88,0.00,,CLR,0.00,VWS V14.01,2013-01-10 06:03:00,
2013-01-10 01:08:00,32.1,29.2,30.55,West,273,0.0,0.0,89,0.00,,CLR,0.00,VWS V14.01,2013-01-10 06:08:00,
2013-01-10 01:13:00,31.9,28.8,30.55,West,273,1.0,1.0,88,0.00,,CLR,0.00,VWS V14.01,2013-01-10 06:13:00,
2013-01-10 01:18:00,31.8,28.7,30.55,West,273,0.0,1.0,88,0.00,,CLR,0.00,VWS V14.01,2013-01-10 06:18:00,
2013-01-10 01:23:00,31.5,28.6,30.55,WNW,296,1.0,3.0,89,0.00,,CLR,0.00,VWS V14.01,2013-01-10 06:23:00,
2013-01-10 01:28:00,31.4,28.5,30.55,WNW,296,0.0,3.0,89,0.00,,CLR,0.00,VWS V14.01,2013-01-10 06:28:00,
2013-01-10 01:33:00,31.5,28.6,30.55,WNW,296,0.0,0.0,89,0.00,,CLR,0.00,VWS V14.01,2013-01-10 06:33:00,
2013-01-10 01:39:00,31.6,28.7,30.55,WNW,296,0.0,0.0,89,0.00,,CLR,0.00,VWS V14.01,2013-01-10 06:39:00,
2013-01-10 01:44:00,31.5,28.6,30.55,WNW,296,0.0,0.0,89,0.00,,CLR,0.00,VWS V14.01,2013-01-10 06:44:00,
2013-01-10 01:49:00,31.2,28.1,30.55,WNW,296,0.0,2.0,88,0.00,,CLR,0.00,VWS V14.01,2013-01-10 06:49:00,
2013-01-10 01:54:00,31.0,28.1,30.55,WNW,296,0.0,2.0,89,0.00,,CLR,0.00,VWS V14.01,2013-01-10 06:54:00,
2013-01-10 01:59:00,30.8,28.2,30.54,WNW,296,1.0,2.0,90,0.00,,CLR,0.00,VWS V14.01,2013-01-10 06:59:00,
2013-01-10 02:04:00,30.7,28.1,30.54,NW,309,3.0,3.0,90,0.00,,CLR,0.00,VWS V14.01,2013-01-10 07:04:00,
2013-01-10 02:09:00,31.0,28.7,30.55,NW,309,2.0,3.0,91,0.00,,CLR,0.00,VWS V14.01,2013-01-10 07:09:00,
2013-01-10 02:14:00,31.4,29.1,30.55,NW,309,0.0,3.0,91,0.00,,CLR,0.00,VWS V14.01,2013-01-10 07:14:00,
2013-01-10 02:19:00,31.6,29.0,30.55,NW,309,1.0,3.0,90,0.00,,CLR,0.00,VWS V14.01,2013-01-10 07:19:00,
2013-01-10 02:24:00,31.6,28.7,30.55,NW,309,1.0,3.0,89,0.00,,CLR,0.00,VWS V14.01,2013-01-10 07:24:00,
2013-01-10 02:29:00,31.4,28.5,30.55,NW,309,2.0,3.0,89,0.00,,CLR,0.00,VWS V14.01,2013-01-10 07:29:00,
2013-01-10 02:34:00,31.2,28.3,30.55,NW,309,0.0,3.0,89,0.00,,CLR,0.00,VWS V14.01,2013-01-10 07:34:00,
2013-01-10 02:39:00,31.2,28.6,30.55,NW,309,1.0,3.0,90,0.00,,CLR,0.00,VWS V14.01,2013-01-10 07:39:00,
2013-01-10 02:44:00,31.2,28.9,30.55,NW,309,2.0,3.0,91,0.00,,CLR,0.00,VWS V14.01,2013-01-10 07:44:00,
2013-01-10 02:49:00,31.4,28.8,30.55,NW,309,1.0,3.0,90,0.00,,CLR,0.00,VWS V14.01,2013-01-10 07:49:00,
2013-01-10 02:54:00,31.4,28.8,30.55,NW,310,1.0,3.0,90,0.00,,CLR,0.00,VWS V14.01,2013-01-10 07:54:00,
2013-01-10 02:59:00,31.2,28.6,30.55,NW,310,0.0,3.0,90,0.00,,CLR,0.00,VWS V14.01,2013-01-10 07:59:00,
2013-01-10 03:05:00,30.9,28.3,30.55,NW,310,0.0,0.0,90,0.00,,CLR,0.00,VWS V14.01,2013-01-10 08:05:00,
2013-01-10 03:10:00,30.5,27.6,30.55,NW,310,0.0,0.0,89,0.00,,CLR,0.00,VWS V14.01,2013-01-10 08:10:00,
2013-01-10 03:15:00,29.8,27.0,30.55,NW,310,0.0,0.0,89,0.00,,CLR,0.00,VWS V14.01,2013-01-10 08:15:00,
2013-01-10 03:20:00,29.2,26.6,30.55,NW,310,0.0,0.0,90,0.00,,CLR,0.00,VWS V14.01,2013-01-10 08:20:00,
2013-01-10 03:25:00,28.8,26.2,30.55,NW,310,0.0,0.0,90,0.00,,CLR,0.00,VWS V14.01,2013-01-10 08:25:00,
2013-01-10 03:30:00,28.6,26.6,30.55,NW,310,0.0,0.0,92,0.00,,CLR,0.00,VWS V14.01,2013-01-10 08:30:00,
2013-01-10 03:35:00,28.5,26.7,30.55,NW,310,0.0,0.0,93,0.00,,CLR,0.00,VWS V14.01,2013-01-10 08:35:00,
2013-01-10 03:40:00,28.5,27.0,30.55,NW,310,0.0,0.0,94,0.00,,CLR,0.00,VWS V14.01,2013-01-10 08:40:00,
2013-01-10 03:45:00,28.4,26.9,30.54,NW,310,0.0,0.0,94,0.00,,CLR,0.00,VWS V14.01,2013-01-10 08:45:00,
2013-01-10 03:50:00,28.3,26.8,30.54,NW,310,0.0,0.0,94,0.00,,CLR,0.00,VWS V14.01,2013-01-10 08:50:00,
2013-01-10 03:55:00,28.4,26.9,30.54,NW,310,0.0,0.0,94,0.00,,CLR,0.00,VWS V14.01,2013-01-10 08:55:00,
2013-01-10 04:00:00,28.4,27.1,30.54,NW,310,0.0,0.0,95,0.00,,,0.00,VWS V14.01,2013-01-10 09:00:00,
2013-01-10 04:05:00,28.3,26.8,30.54,NW,310,1.0,2.0,94,0.00,,,0.00,VWS V14.01,2013-01-10 09:05:00,
2013-01-10 04:10:00,28.7,27.7,30.54,NW,310,1.0,2.0,96,0.00,,,0.00,VWS V14.01,2013-01-10 09:10:00,
2013-01-10 04:15:00,29.1,27.9,30.54,NW,310,1.0,2.0,95,0.00,,,0.00,VWS V14.01,2013-01-10 09:15:00,
2013-01-10 04:20:00,29.2,28.0,30.54,NW,310,0.0,2.0,95,0.00,,,0.00,VWS V14.01,2013-01-10 09:20:00,
2013-01-10 04:26:00,29.0,27.8,30.54,NW,310,0.0,2.0,95,0.00,,,0.00,VWS V14.01,2013-01-10 09:26:00,
2013-01-10 04:31:00,29.0,27.8,30.54,NW,310,0.0,2.0,95,0.00,,,0.00,VWS V14.01,2013-01-10 09:31:00,
2013-01-10 04:36:00,28.5,26.7,30.54,NW,310,0.0,0.0,93,0.00,,,0.00,VWS V14.01,2013-01-10 09:36:00,
2013-01-10 04:41:00,28.3,26.8,30.54,NW,310,0.0,0.0,94,0.00,,,0.00,VWS V14.01,2013-01-10 09:41:00,
2013-01-10 04:46:00,28.1,26.6,30.54,NW,310,0.0,0.0,94,0.00,,,0.00,VWS V14.01,2013-01-10 09:46:00,
2013-01-10 04:51:00,27.9,26.4,30.54,NW,310,0.0,0.0,94,0.00,,,0.00,VWS V14.01,2013-01-10 09:51:00,
2013-01-10 04:56:00,27.8,26.3,30.54,NW,310,0.0,0.0,94,0.00,,,0.00,VWS V14.01,2013-01-10 09:56:00,
2013-01-10 05:01:00,27.6,26.1,30.54,NW,310,0.0,0.0,94,0.00,,,0.00,VWS V14.01,2013-01-10 10:01:00,
2013-01-10 05:06:00,27.2,25.7,30.54,NW,310,0.0,0.0,94,0.00,,,0.00,VWS V14.01,2013-01-10 10:06:00,
2013-01-10 05:11:00,27.0,25.8,30.54,NW,310,0.0,0.0,95,0.00,,,0.00,VWS V14.01,2013-01-10 10:11:00,
2013-01-10 05:16:00,27.1,25.9,30.55,NW,310,0.0,0.0,95,0.00,,,0.00,VWS V14.01,2013-01-10 10:16:00,
2013-01-10 05:21:00,27.3,26.3,30.55,NW,310,0.0,0.0,96,0.00,,,0.00,VWS V14.01,2013-01-10 10:21:00,
2013-01-10 05:26:00,27.1,25.9,30.55,NW,310,0.0,0.0,95,0.00,,,0.00,VWS V14.01,2013-01-10 10:26:00,
2013-01-10 05:31:00,27.2,26.2,30.55,NW,310,0.0,0.0,96,0.00,,,0.00,VWS V14.01,2013-01-10 10:31:00,
2013-01-10 05:36:00,27.2,26.0,30.55,NW,310,0.0,0.0,95,0.00,,,0.00,VWS V14.01,2013-01-10 10:36:00,
2013-01-10 05:42:00,27.0,25.8,30.56,NW,310,0.0,0.0,95,0.00,,,0.00,VWS V14.01,2013-01-10 10:42:00,
2013-01-10 05:47:00,26.7,25.5,30.55,NW,310,0.0,0.0,95,0.00,,,0.00,VWS V14.01,2013-01-10 10:47:00,
2013-01-10 05:52:00,26.5,25.3,30.56,NW,310,0.0,0.0,95,0.00,,,0.00,VWS V14.01,2013-01-10 10:52:00,
2013-01-10 05:57:00,26.3,25.1,30.55,NW,310,0.0,0.0,95,0.00,,,0.00,VWS V14.01,2013-01-10 10:57:00,
2013-01-10 06:02:00,26.2,25.0,30.56,NW,310,0.0,0.0,95,0.00,,,0.00,VWS V14.01,2013-01-10 11:02:00,
2013-01-10 06:07:00,26.1,24.9,30.56,NW,310,0.0,0.0,95,0.00,,,0.00,VWS V14.01,2013-01-10 11:07:00,
2013-01-10 06:12:00,26.1,24.9,30.56,NW,310,0.0,0.0,95,0.00,,,0.00,VWS V14.01,2013-01-10 11:12:00,
2013-01-10 06:17:00,26.0,24.8,30.56,NW,310,0.0,0.0,95,0.00,,,0.00,VWS V14.01,2013-01-10 11:17:00,
2013-01-10 06:22:00,25.9,24.7,30.57,NW,310,0.0,0.0,95,0.00,,,0.00,VWS V14.01,2013-01-10 11:22:00,
2013-01-10 06:27:00,25.8,24.6,30.57,NW,310,0.0,0.0,95,0.00,,,0.00,VWS V14.01,2013-01-10 11:27:00,
2013-01-10 06:32:00,25.9,24.9,30.57,NW,310,0.0,0.0,96,0.00,,,0.00,VWS V14.01,2013-01-10 11:32:00,
2013-01-10 06:37:00,26.2,25.2,30.57,NW,319,0.0,0.0,96,0.00,,,0.00,VWS V14.01,2013-01-10 11:37:00,
2013-01-10 06:42:00,26.5,25.5,30.57,NW,319,0.0,0.0,96,0.00,,,0.00,VWS V14.01,2013-01-10 11:42:00,
2013-01-10 06:47:00,26.6,25.6,30.57,NW,319,1.0,2.0,96,0.00,,,0.00,VWS V14.01,2013-01-10 11:47:00,
2013-01-10 06:52:00,26.4,25.4,30.57,North,350,2.0,3.0,96,0.00,,,0.00,VWS V14.01,2013-01-10 11:52:00,
2013-01-10 06:57:00,26.2,25.0,30.57,North,350,1.0,3.0,95,0.00,,,0.00,VWS V14.01,2013-01-10 11:57:00,
2013-01-10 07:02:00,26.2,25.0,30.57,North,5,2.0,3.0,95,0.00,,,0.00,VWS V14.01,2013-01-10 12:02:00,
2013-01-10 07:07:00,26.1,24.9,30.56,NNE,27,2.0,3.0,95,0.00,,,0.00,VWS V14.01,2013-01-10 12:07:00,
2013-01-10 07:12:00,26.2,24.7,30.57,NNE,28,2.0,3.0,94,0.00,,,0.00,VWS V14.01,2013-01-10 12:12:00,
2013-01-10 07:18:00,26.3,24.8,30.57,NNE,28,1.0,3.0,94,0.00,,,0.00,VWS V14.01,2013-01-10 12:18:00,
2013-01-10 07:23:00,26.6,25.1,30.57,NNE,28,0.0,3.0,94,0.00,,,0.00,VWS V14.01,2013-01-10 12:23:00,
2013-01-10 07:28:00,26.6,25.1,30.57,NNE,28,1.0,3.0,94,0.00,,,0.00,VWS V14.01,2013-01-10 12:28:00,
2013-01-10 07:33:00,26.7,25.2,30.57,NNE,28,2.0,3.0,94,0.00,,,0.00,VWS V14.01,2013-01-10 12:33:00,
2013-01-10 07:38:00,27.0,25.2,30.57,NNE,21,2.0,3.0,93,0.00,,,0.00,VWS V14.01,2013-01-10 12:38:00,
2013-01-10 07:43:00,27.4,25.9,30.58,NNE,21,2.0,3.0,94,0.00,,,0.00,VWS V14.01,2013-01-10 12:43:00,
2013-01-10 07:48:00,27.7,25.9,30.58,NNE,21,0.0,3.0,93,0.00,,,0.00,VWS V14.01,2013-01-10 12:48:00,
2013-01-10 07:53:00,27.6,25.6,30.58,NNE,21,0.0,3.0,92,0.00,,,0.00,VWS V14.01,2013-01-10 12:53:00,
2013-01-10 07:58:00,27.5,25.5,30.59,NNE,21,0.0,3.0,92,0.00,,,0.00,VWS V14.01,2013-01-10 12:58:00,
2013-01-10 08:03:00,27.3,25.3,30.59,NNE,21,0.0,0.0,92,0.00,,,0.00,VWS V14.01,2013-01-10 13:03:00,
2013-01-10 08:08:00,27.3,25.5,30.60,NNE,21,2.0,3.0,93,0.00,,,0.00,VWS V14.01,2013-01-10 13:08:00,
2013-01-10 08:13:00,27.6,25.8,30.59,NNE,21,0.0,3.0,93,0.00,,,0.00,VWS V14.01,2013-01-10 13:13:00,
2013-01-10 08:18:00,27.9,26.1,30.60,NNE,21,0.0,3.0,93,0.00,,,0.00,VWS V14.01,2013-01-10 13:18:00,
2013-01-10 08:23:00,28.4,26.6,30.60,NNE,21,1.0,3.0,93,0.00,,,0.00,VWS V14.01,2013-01-10 13:23:00,
2013-01-10 08:28:00,29.1,27.3,30.60,NNE,33,1.0,3.0,93,0.00,,,0.00,VWS V14.01,2013-01-10 13:28:00,
2013-01-10 08:33:00,29.7,27.4,30.60,NE,34,2.0,4.0,91,0.00,,,0.00,VWS V14.01,2013-01-10 13:33:00,
2013-01-10 08:38:00,30.3,27.7,30.60,NE,43,2.0,4.0,90,0.00,,,0.00,VWS V14.01,2013-01-10 13:38:00,
2013-01-10 08:43:00,30.9,28.0,30.60,ENE,63,3.0,4.0,89,0.00,,,0.00,VWS V14.01,2013-01-10 13:43:00,
2013-01-10 08:49:00,31.4,28.5,30.60,NE,48,1.0,4.0,89,0.00,,,0.00,VWS V14.01,2013-01-10 13:49:00,
2013-01-10 08:54:00,31.7,28.6,30.61,ENE,78,1.0,5.0,88,0.00,,,0.00,VWS V14.01,2013-01-10 13:54:00,
2013-01-10 08:59:00,32.1,28.7,30.61,East,79,1.0,5.0,87,0.00,,,0.00,VWS V14.01,2013-01-10 13:59:00,
2013-01-10 09:04:00,32.0,28.0,30.61,East,96,1.0,2.0,85,0.00,,,0.00,VWS V14.01,2013-01-10 14:04:00,
2013-01-10 09:09:00,30.4,26.1,30.61,East,96,1.0,2.0,84,0.00,,,0.00,VWS V14.01,2013-01-10 14:09:00,
2013-01-10 09:14:00,28.9,25.5,30.61,East,96,0.0,2.0,87,0.00,,,0.00,VWS V14.01,2013-01-10 14:14:00,
2013-01-10 09:19:00,28.6,25.5,30.61,East,96,0.0,2.0,88,0.00,,,0.00,VWS V14.01,2013-01-10 14:19:00,
2013-01-10 09:24:00,28.5,26.0,30.61,East,96,0.0,2.0,90,0.00,,,0.00,VWS V14.01,2013-01-10 14:24:00,
2013-01-10 09:29:00,28.3,25.5,30.61,East,96,0.0,2.0,89,0.00,,,0.00,VWS V14.01,2013-01-10 14:29:00,
2013-01-10 09:34:00,28.1,25.5,30.61,East,96,0.0,0.0,90,0.00,,,0.00,VWS V14.01,2013-01-10 14:34:00,
2013-01-10 09:39:00,28.3,26.0,30.61,East,96,0.0,0.0,91,0.00,,,0.00,VWS V14.01,2013-01-10 14:39:00,
2013-01-10 09:44:00,28.6,26.3,30.61,East,96,0.0,1.0,91,0.00,,,0.00,VWS V14.01,2013-01-10 14:44:00,
2013-01-10 09:49:00,28.6,26.0,30.62,East,96,0.0,1.0,90,0.00,,,0.00,VWS V14.01,2013-01-10 14:49:00,
2013-01-10 09:54:00,28.7,26.1,30.62,East,96,0.0,1.0,90,0.00,,,0.00,VWS V14.01,2013-01-10 14:54:00,
2013-01-10 09:59:00,28.8,26.5,30.61,East,96,0.0,1.0,91,0.00,,,0.00,VWS V14.01,2013-01-10 14:59:00,
2013-01-10 10:04:00,29.2,26.9,30.61,East,96,0.0,0.0,91,0.00,,,0.00,VWS V14.01,2013-01-10 15:04:00,
2013-01-10 10:09:00,29.7,27.4,30.61,East,96,0.0,0.0,91,0.00,,,0.00,VWS V14.01,2013-01-10 15:09:00,
2013-01-10 10:14:00,30.0,27.7,30.62,East,96,0.0,0.0,91,0.00,,,0.00,VWS V14.01,2013-01-10 15:14:00,
2013-01-10 10:19:00,30.8,28.5,30.62,East,96,0.0,0.0,91,0.00,,,0.00,VWS V14.01,2013-01-10 15:19:00,
2013-01-10 10:25:00,31.4,28.8,30.62,ESE,105,2.0,3.0,90,0.00,,,0.00,VWS V14.01,2013-01-10 15:25:00,
2013-01-10 10:30:00,31.8,29.2,30.63,ESE,105,1.0,3.0,90,0.00,,,0.00,VWS V14.01,2013-01-10 15:30:00,
2013-01-10 10:35:00,32.2,29.6,30.63,SE,138,2.0,3.0,90,0.00,,,0.00,VWS V14.01,2013-01-10 15:35:00,
2013-01-10 10:40:00,32.6,29.7,30.62,SSE,168,1.0,4.0,89,0.00,,,0.00,VWS V14.01,2013-01-10 15:40:00,
2013-01-10 10:45:00,33.7,31.1,30.62,SSE,168,0.0,4.0,90,0.00,,,0.00,VWS V14.01,2013-01-10 15:45:00,
2013-01-10 10:50:00,34.8,30.8,30.62,SE,134,1.0,7.0,85,0.00,,,0.00,VWS V14.01,2013-01-10 15:50:00,
2013-01-10 10:55:00,35.3,30.4,30.61,East,84,6.0,8.0,82,0.00,,,0.00,VWS V14.01,2013-01-10 15:55:00,
2013-01-10 11:00:00,35.5,30.3,30.61,SE,136,1.0,8.0,81,0.00,,,0.00,VWS V14.01,2013-01-10 16:00:00,
2013-01-10 11:05:00,36.0,30.8,30.61,ESE,106,2.0,5.0,81,0.00,,,0.00,VWS V14.01,2013-01-10 16:05:00,
2013-01-10 11:10:00,36.6,30.7,30.61,East,88,5.0,7.0,79,0.00,,,0.00,VWS V14.01,2013-01-10 16:10:00,
2013-01-10 11:15:00,36.5,30.6,30.60,ESE,108,2.0,7.0,79,0.00,,,0.00,VWS V14.01,2013-01-10 16:15:00,
2013-01-10 11:20:00,36.5,30.3,30.60,East,98,6.0,7.0,78,0.00,,,0.00,VWS V14.01,2013-01-10 16:20:00,
2013-01-10 11:25:00,36.6,30.7,30.60,SE,137,1.0,8.0,79,0.00,,,0.00,VWS V14.01,2013-01-10 16:25:00,
2013-01-10 11:31:00,36.8,30.3,30.60,ESE,123,3.0,8.0,77,0.00,,,0.00,VWS V14.01,2013-01-10 16:31:00,
2013-01-10 11:36:00,36.9,30.4,30.59,East,101,5.0,7.0,77,0.00,,,0.00,VWS V14.01,2013-01-10 16:36:00,
2013-01-10 11:41:00,37.0,30.1,30.59,East,98,3.0,7.0,76,0.00,,,0.00,VWS V14.01,2013-01-10 16:41:00,
2013-01-10 11:46:00,37.2,30.4,30.59,SSE,163,4.0,7.0,76,0.00,,,0.00,VWS V14.01,2013-01-10 16:46:00,
2013-01-10 11:51:00,37.3,30.1,30.59,South,171,1.0,7.0,75,0.00,,,0.00,VWS V14.01,2013-01-10 16:51:00,
2013-01-10 11:56:00,37.4,30.2,30.58,East,98,5.0,7.0,75,0.00,,,0.00,VWS V14.01,2013-01-10 16:56:00,
2013-01-10 12:01:00,37.4,30.5,30.58,SE,134,2.0,7.0,76,0.00,,,0.00,VWS V14.01,2013-01-10 17:01:00,
2013-01-10 12:06:00,37.6,30.4,30.57,SSE,148,3.0,5.0,75,0.00,,,0.00,VWS V14.01,2013-01-10 17:06:00,
2013-01-10 12:11:00,37.7,30.2,30.57,East,97,5.0,7.0,74,0.00,,,0.00,VWS V14.01,2013-01-10 17:11:00,
2013-01-10 12:16:00,37.7,30.2,30.57,East,98,5.0,7.0,74,0.00,,,0.00,VWS V14.01,2013-01-10 17:16:00,
2013-01-10 12:21:00,37.6,30.1,30.56,East,92,2.0,8.0,74,0.00,,,0.00,VWS V14.01,2013-01-10 17:21:00,
2013-01-10 12:26:00,37.7,30.2,30.56,ESE,107,3.0,8.0,74,0.00,,,0.00,VWS V14.01,2013-01-10 17:26:00,
2013-01-10 12:31:00,37.8,30.3,30.56,East,95,5.0,8.0,74,0.00,,,0.00,VWS V14.01,2013-01-10 17:31:00,
2013-01-10 12:36:00,38.0,30.8,30.56,SE,132,3.0,6.0,75,0.00,,,0.00,VWS V14.01,2013-01-10 17:36:00,
2013-01-10 12:41:00,38.0,30.5,30.56,SE,131,3.0,6.0,74,0.00,,,0.00,VWS V14.01,2013-01-10 17:41:00,
2013-01-10 12:46:00,38.1,30.6,30.55,ESE,102,2.0,6.0,74,0.00,,,0.00,VWS V14.01,2013-01-10 17:46:00,
2013-01-10 12:51:00,38.4,31.2,30.55,SE,133,3.0,6.0,75,0.00,,,0.00,VWS V14.01,2013-01-10 17:51:00,
2013-01-10 12:56:00,38.6,31.0,30.55,ESE,123,5.0,7.0,74,0.00,,,0.00,VWS V14.01,2013-01-10 17:56:00,
2013-01-10 13:01:00,38.8,30.9,30.54,ESE,117,3.0,4.0,73,0.00,,CLR,0.00,VWS V14.01,2013-01-10 18:01:00,
2013-01-10 13:06:00,38.9,30.0,30.54,SSE,159,5.0,10.0,70,0.00,,CLR,0.00,VWS V14.01,2013-01-10 18:06:00,
2013-01-10 13:12:00,39.2,29.9,30.54,East,94,10.0,10.0,69,0.00,,CLR,0.00,VWS V14.01,2013-01-10 18:12:00,
2013-01-10 13:17:00,39.2,29.9,30.54,East,94,7.0,10.0,69,0.00,,CLR,0.00,VWS V14.01,2013-01-10 18:17:00,
2013-01-10 13:22:00,39.0,29.7,30.53,SSE,161,5.0,10.0,69,0.00,,CLR,0.00,VWS V14.01,2013-01-10 18:22:00,
2013-01-10 13:27:00,39.0,30.1,30.53,ESE,113,4.0,10.0,70,0.00,,CLR,0.00,VWS V14.01,2013-01-10 18:27:00,
2013-01-10 13:32:00,39.0,30.1,30.54,SE,138,5.0,5.0,70,0.00,,CLR,0.00,VWS V14.01,2013-01-10 18:32:00,
2013-01-10 13:37:00,38.9,30.0,30.53,SE,128,5.0,8.0,70,0.00,,CLR,0.00,VWS V14.01,2013-01-10 18:37:00,
2013-01-10 13:42:00,38.8,29.9,30.53,East,97,5.0,10.0,70,0.00,,CLR,0.00,VWS V14.01,2013-01-10 18:42:00,
2013-01-10 13:47:00,38.9,30.0,30.53,East,94,3.0,10.0,70,0.00,,CLR,0.00,VWS V14.01,2013-01-10 18:47:00,
2013-01-10 13:52:00,39.0,30.1,30.53,South,174,4.0,10.0,70,0.00,,CLR,0.00,VWS V14.01,2013-01-10 18:52:00,
2013-01-10 13:57:00,39.1,29.8,30.52,South,171,4.0,10.0,69,0.00,,CLR,0.00,VWS V14.01,2013-01-10 18:57:00,
2013-01-10 14:02:00,39.2,29.9,30.52,SE,132,7.0,9.0,69,0.00,,CLR,0.00,VWS V14.01,2013-01-10 19:02:00,
2013-01-10 14:07:00,39.5,30.5,30.52,East,90,1.0,9.0,70,0.00,,CLR,0.00,VWS V14.01,2013-01-10 19:07:00,
2013-01-10 14:12:00,39.9,30.2,30.51,SE,128,4.0,11.0,68,0.00,,CLR,0.00,VWS V14.01,2013-01-10 19:12:00,
2013-01-10 14:17:00,40.1,30.4,30.51,ESE,105,0.0,11.0,68,0.00,,CLR,0.00,VWS V14.01,2013-01-10 19:17:00,
2013-01-10 14:22:00,40.1,30.4,30.51,SE,138,6.0,11.0,68,0.00,,CLR,0.00,VWS V14.01,2013-01-10 19:22:00,
2013-01-10 14:28:00,39.8,29.8,30.52,SE,138,7.0,11.0,67,0.00,,CLR,0.00,VWS V14.01,2013-01-10 19:28:00,
2013-01-10 14:33:00,39.6,29.9,30.52,SE,142,6.0,6.0,68,0.00,,CLR,0.00,VWS V14.01,2013-01-10 19:33:00,
2013-01-10 14:38:00,39.5,30.2,30.51,East,101,2.0,8.0,69,0.00,,CLR,0.00,VWS V14.01,2013-01-10 19:38:00,
2013-01-10 14:43:00,39.5,30.2,30.51,SE,139,5.0,8.0,69,0.00,,CLR,0.00,VWS V14.01,2013-01-10 19:43:00,
2013-01-10 14:48:00,39.5,29.8,30.51,SE,126,1.0,9.0,68,0.00,,CLR,0.00,VWS V14.01,2013-01-10 19:48:00,
2013-01-10 14:53:00,39.5,29.8,30.51,SSE,157,6.0,9.0,68,0.00,,CLR,0.00,VWS V14.01,2013-01-10 19:53:00,
2013-01-10 14:58:00,39.5,29.8,30.50,East,87,2.0,9.0,68,0.00,,CLR,0.00,VWS V14.01,2013-01-10 19:58:00,
2013-01-10 15:03:00,39.5,29.8,30.51,SE,134,6.0,9.0,68,0.00,,CLR,0.00,VWS V14.01,2013-01-10 20:03:00,
2013-01-10 15:09:00,39.5,29.8,30.50,ESE,123,3.0,9.0,68,0.00,,CLR,0.00,VWS V14.01,2013-01-10 20:09:00,
2013-01-10 15:14:00,39.4,29.7,30.50,ESE,104,5.0,9.0,68,0.00,,CLR,0.00,VWS V14.01,2013-01-10 20:14:00,
2013-01-10 15:19:00,39.4,30.1,30.50,East,96,5.0,9.0,69,0.00,,CLR,0.00,VWS V14.01,2013-01-10 20:19:00,
2013-01-10 15:24:00,39.4,29.7,30.50,ESE,107,3.0,9.0,68,0.00,,CLR,0.00,VWS V14.01,2013-01-10 20:24:00,
2013-01-10 15:29:00,39.5,30.2,30.50,SE,124,3.0,9.0,69,0.00,,CLR,0.00,VWS V14.01,2013-01-10 20:29:00,
2013-01-10 15:34:00,39.5,30.2,30.50,ESE,112,0.0,5.0,69,0.00,,CLR,0.00,VWS V14.01,2013-01-10 20:34:00,
2013-01-10 15:40:00,39.5,30.2,30.49,SE,146,4.0,7.0,69,0.00,,CLR,0.00,VWS V14.01,2013-01-10 20:40:00,
2013-01-10 15:45:00,39.5,30.2,30.49,SE,142,1.0,7.0,69,0.00,,CLR,0.00,VWS V14.01,2013-01-10 20:45:00,
2013-01-10 15:50:00,39.4,30.1,30.49,ESE,121,4.0,7.0,69,0.00,,CLR,0.00,VWS V14.01,2013-01-10 20:50:00,
2013-01-10 15:55:00,39.4,29.7,30.49,ESE,115,2.0,7.0,68,0.00,,CLR,0.00,VWS V14.01,2013-01-10 20:55:00,
2013-01-10 16:00:00,39.3,30.0,30.48,East,91,2.0,7.0,69,0.00,,CLR,0.00,VWS V14.01,2013-01-10 21:00:00,
2013-01-10 16:05:00,39.3,30.0,30.48,East,90,6.0,6.0,69,0.00,,CLR,0.00,VWS V14.01,2013-01-10 21:05:00,
2013-01-10 16:10:00,39.2,29.9,30.48,East,85,2.0,7.0,69,0.00,,CLR,0.00,VWS V14.01,2013-01-10 21:10:00,
2013-01-10 16:15:00,39.1,29.8,30.48,ESE,112,5.0,8.0,69,0.00,,CLR,0.00,VWS V14.01,2013-01-10 21:15:00,
2013-01-10 16:20:00,39.0,30.1,30.48,East,92,3.0,9.0,70,0.00,,CLR,0.00,VWS V14.01,2013-01-10 21:20:00,
2013-01-10 16:25:00,38.9,30.0,30.47,East,83,3.0,9.0,70,0.00,,CLR,0.00,VWS V14.01,2013-01-10 21:25:00,
2013-01-10 16:30:00,38.8,29.9,30.47,East,94,5.0,10.0,70,0.00,,CLR,0.00,VWS V14.01,2013-01-10 21:30:00,
2013-01-10 16:35:00,38.7,30.1,30.46,East,92,5.0,7.0,71,0.00,,CLR,0.00,VWS V14.01,2013-01-10 21:35:00,
2013-01-10 16:40:00,38.6,30.0,30.46,East,94,3.0,11.0,71,0.00,,CLR,0.00,VWS V14.01,2013-01-10 21:40:00,
2013-01-10 16:45:00,38.4,29.8,30.46,SE,135,3.0,11.0,71,0.00,,CLR,0.00,VWS V14.01,2013-01-10 21:45:00,
2013-01-10 16:51:00,38.4,30.2,30.47,SE,125,5.0,11.0,72,0.00,,CLR,0.00,VWS V14.01,2013-01-10 21:51:00,
2013-01-10 16:56:00,38.3,30.1,30.47,SE,134,3.0,11.0,72,0.00,,CLR,0.00,VWS V14.01,2013-01-10 21:56:00,
2013-01-10 17:02:00,38.2,30.0,30.47,SSE,153,2.0,2.0,72,0.00,,CLR,0.00,VWS V14.01,2013-01-10 22:02:00,
2013-01-10 17:07:00,38.1,29.9,30.47,SE,125,3.0,6.0,72,0.00,,CLR,0.00,VWS V14.01,2013-01-10 22:07:00,
2013-01-10 17:12:00,38.2,30.0,30.47,SE,131,4.0,7.0,72,0.00,,CLR,0.00,VWS V14.01,2013-01-10 22:12:00,
2013-01-10 17:17:00,38.1,30.2,30.46,SE,142,4.0,7.0,73,0.00,,CLR,0.00,VWS V14.01,2013-01-10 22:17:00,
2013-01-10 17:22:00,38.0,30.1,30.45,East,88,2.0,7.0,73,0.00,,CLR,0.00,VWS V14.01,2013-01-10 22:22:00,
2013-01-10 17:27:00,37.9,30.0,30.45,East,90,2.0,8.0,73,0.00,,CLR,0.00,VWS V14.01,2013-01-10 22:27:00,
2013-01-10 17:32:00,37.8,29.9,30.45,SSE,163,2.0,4.0,73,0.00,,CLR,0.00,VWS V14.01,2013-01-10 22:32:00,
2013-01-10 17:38:00,37.7,30.2,30.45,East,81,3.0,5.0,74,0.00,,CLR,0.00,VWS V14.01,2013-01-10 22:38:00,
2013-01-10 17:43:00,37.7,30.2,30.44,SE,128,6.0,8.0,74,0.00,,CLR,0.00,VWS V14.01,2013-01-10 22:43:00,
2013-01-10 17:48:00,37.5,30.0,30.44,East,94,5.0,8.0,74,0.00,,CLR,0.00,VWS V14.01,2013-01-10 22:48:00,
2013-01-10 17:53:00,37.4,29.9,30.45,SSE,160,3.0,8.0,74,0.00,,CLR,0.00,VWS V14.01,2013-01-10 22:53:00,
2013-01-10 17:58:00,37.5,30.0,30.45,SE,132,4.0,10.0,74,0.00,,CLR,0.00,VWS V14.01,2013-01-10 22:58:00,
2013-01-10 18:03:00,37.5,30.0,30.44,ESE,120,3.0,6.0,74,0.00,,CLR,0.00,VWS V14.01,2013-01-10 23:03:00,
2013-01-10 18:09:00,37.5,30.0,30.44,East,94,5.0,7.0,74,0.00,,CLR,0.00,VWS V14.01,2013-01-10 23:09:00,
2013-01-10 18:14:00,37.4,30.2,30.43,East,85,2.0,8.0,75,0.00,,CLR,0.00,VWS V14.01,2013-01-10 23:14:00,
2013-01-10 18:19:00,37.4,30.2,30.44,ESE,121,1.0,8.0,75,0.00,,CLR,0.00,VWS V14.01,2013-01-10 23:19:00,
2013-01-10 18:24:00,37.4,30.2,30.43,East,94,3.0,8.0,75,0.00,,CLR,0.00,VWS V14.01,2013-01-10 23:24:00,
2013-01-10 18:29:00,37.4,30.2,30.43,East,94,2.0,8.0,75,0.00,,CLR,0.00,VWS V14.01,2013-01-10 23:29:00,
2013-01-10 18:34:00,37.5,30.0,30.43,East,90,3.0,6.0,74,0.00,,CLR,0.00,VWS V14.01,2013-01-10 23:34:00,
2013-01-10 18:39:00,37.5,30.0,30.42,East,101,5.0,10.0,74,0.00,,CLR,0.00,VWS V14.01,2013-01-10 23:39:00,
2013-01-10 18:44:00,37.5,30.0,30.42,East,88,7.0,10.0,74,0.00,,CLR,0.00,VWS V14.01,2013-01-10 23:44:00,
2013-01-10 18:50:00,37.5,30.0,30.41,East,83,8.0,10.0,74,0.00,,CLR,0.00,VWS V14.01,2013-01-10 23:50:00,
2013-01-10 18:55:00,37.5,30.0,30.41,East,98,6.0,10.0,74,0.00,,CLR,0.00,VWS V14.01,2013-01-10 23:55:00,
2013-01-10 19:00:00,37.5,30.0,30.41,East,88,8.0,10.0,74,0.00,,FEW110,0.00,VWS V14.01,2013-01-11 00:00:00,
2013-01-10 19:05:00,37.5,30.0,30.40,ESE,116,2.0,7.0,74,0.00,,FEW110,0.00,VWS V14.01,2013-01-11 00:05:00,
2013-01-10 19:10:00,37.5,30.0,30.40,SE,129,2.0,7.0,74,0.00,,FEW110,0.00,VWS V14.01,2013-01-11 00:10:00,
2013-01-10 19:15:00,37.6,30.1,30.41,ESE,118,2.0,7.0,74,0.00,,FEW110,0.00,VWS V14.01,2013-01-11 00:15:00,
2013-01-10 19:20:00,37.7,29.8,30.41,ESE,105,1.0,7.0,73,0.00,,FEW110,0.00,VWS V14.01,2013-01-11 00:20:00,
2013-01-10 19:25:00,37.8,29.6,30.41,East,80,6.0,7.0,72,0.00,,FEW110,0.00,VWS V14.01,2013-01-11 00:25:00,
2013-01-10 19:30:00,37.9,29.7,30.41,ESE,107,2.0,7.0,72,0.00,,FEW110,0.00,VWS V14.01,2013-01-11 00:30:00,
2013-01-10 19:35:00,37.9,29.7,30.41,ESE,107,4.0,6.0,72,0.00,,FEW110,0.00,VWS V14.01,2013-01-11 00:35:00,
2013-01-10 19:45:00,37.8,29.9,30.40,ESE,107,4.0,4.0,73,0.00,,,0.00,VWS V14.01,2013-01-11 00:45:00,
2013-01-10 19:50:00,37.8,29.6,30.40,East,88,2.0,5.0,72,0.00,,,0.00,VWS V14.01,2013-01-11 00:50:00,
2013-01-10 19:55:00,37.8,29.6,30.40,ENE,78,7.0,7.0,72,0.00,,,0.00,VWS V14.01,2013-01-11 00:55:00,
2013-01-10 20:00:00,37.9,29.7,30.39,East,80,3.0,7.0,72,0.00,,BKN110,0.00,VWS V14.01,2013-01-11 01:00:00,
2013-01-10 20:05:00,37.9,29.7,30.39,SE,136,3.0,7.0,72,0.00,,BKN110,0.00,VWS V14.01,2013-01-11 01:05:00,
2013-01-10 20:10:00,37.9,29.7,30.40,SE,132,2.0,7.0,72,0.00,,BKN110,0.00,VWS V14.01,2013-01-11 01:10:00,
2013-01-10 20:15:00,37.9,29.7,30.39,East,100,2.0,7.0,72,0.00,,BKN110,0.00,VWS V14.01,2013-01-11 01:15:00,
2013-01-10 20:21:00,37.9,29.7,30.39,East,95,2.0,7.0,72,0.00,,BKN110,0.00,VWS V14.01,2013-01-11 01:21:00,
2013-01-10 20:26:00,37.9,29.7,30.39,East,92,3.0,7.0,72,0.00,,BKN110,0.00,VWS V14.01,2013-01-11 01:26:00,
2013-01-10 20:31:00,37.9,29.4,30.38,ESE,112,7.0,7.0,71,0.00,,BKN110,0.00,VWS V14.01,2013-01-11 01:31:00,
2013-01-10 20:36:00,37.9,29.4,30.38,ESE,108,1.0,7.0,71,0.00,,BKN110,0.00,VWS V14.01,2013-01-11 01:36:00,
2013-01-10 20:41:00,37.9,29.4,30.38,East,90,5.0,7.0,71,0.00,,BKN110,0.00,VWS V14.01,2013-01-11 01:41:00,
2013-01-10 20:46:00,38.0,29.5,30.37,East,89,3.0,9.0,71,0.00,,BKN110,0.00,VWS V14.01,2013-01-11 01:46:00,
2013-01-10 20:51:00,38.0,29.5,30.37,East,94,2.0,9.0,71,0.00,,BKN110,0.00,VWS V14.01,2013-01-11 01:51:00,
2013-01-10 20:56:00,37.9,29.4,30.37,East,96,1.0,9.0,71,0.00,,BKN110,0.00,VWS V14.01,2013-01-11 01:56:00,
2013-01-10 21:04:00,37.9,29.4,30.36,ESE,103,1.0,6.0,71,0.00,,,0.00,VWS V14.01,2013-01-11 02:04:00,
2013-01-10 21:09:00,38.0,29.1,30.36,East,99,2.0,7.0,70,0.00,,,0.00,VWS V14.01,2013-01-11 02:09:00,
2013-01-10 21:14:00,38.1,29.2,30.36,East,85,2.0,7.0,70,0.00,,,0.00,VWS V14.01,2013-01-11 02:14:00,
2013-01-10 21:20:00,38.2,29.3,30.36,ENE,78,4.0,7.0,70,0.00,,,0.00,VWS V14.01,2013-01-11 02:20:00,
2013-01-10 21:25:00,38.3,29.0,30.35,East,90,1.0,9.0,69,0.00,,,0.00,VWS V14.01,2013-01-11 02:25:00,
2013-01-10 21:30:00,38.4,29.1,30.35,SSE,151,3.0,9.0,69,0.00,,,0.00,VWS V14.01,2013-01-11 02:30:00,
2013-01-10 21:35:00,38.4,28.8,30.35,ESE,107,1.0,6.0,68,0.00,,,0.00,VWS V14.01,2013-01-11 02:35:00,
2013-01-10 21:40:00,38.5,28.9,30.34,ESE,122,5.0,9.0,68,0.00,,,0.00,VWS V14.01,2013-01-11 02:40:00,
2013-01-10 21:45:00,38.5,28.9,30.34,East,93,2.0,9.0,68,0.00,,,0.00,VWS V14.01,2013-01-11 02:45:00,
2013-01-10 21:50:00,38.5,28.9,30.33,East,101,3.0,9.0,68,0.00,,,0.00,VWS V14.01,2013-01-11 02:50:00,
2013-01-10 21:56:00,38.5,28.9,30.33,ESE,120,3.0,9.0,68,0.00,,,0.00,VWS V14.01,2013-01-11 02:56:00,
2013-01-10 22:01:00,38.6,28.6,30.33,ESE,115,2.0,10.0,67,0.00,,OVC095,0.00,VWS V14.01,2013-01-11 03:01:00,
2013-01-10 22:06:00,38.7,28.7,30.32,East,82,3.0,10.0,67,0.00,,OVC095,0.00,VWS V14.01,2013-01-11 03:06:00,
2013-01-10 22:11:00,38.7,28.7,30.32,East,95,6.0,10.0,67,0.00,,OVC095,0.00,VWS V14.01,2013-01-11 03:11:00,
2013-01-10 22:16:00,38.7,28.3,30.31,East,89,8.0,10.0,66,0.00,,OVC095,0.00,VWS V14.01,2013-01-11 03:16:00,
2013-01-10 22:21:00,38.8,28.1,30.31,East,85,6.0,10.0,65,0.00,,OVC095,0.00,VWS V14.01,2013-01-11 03:21:00,
2013-01-10 22:27:00,39.0,28.2,30.30,East,94,2.0,10.0,65,0.00,,OVC095,0.00,VWS V14.01,2013-01-11 03:27:00,
2013-01-10 22:32:00,39.1,28.3,30.30,ESE,119,2.0,4.0,65,0.00,,OVC095,0.00,VWS V14.01,2013-01-11 03:32:00,
2013-01-10 22:37:00,39.3,28.2,30.30,ESE,109,2.0,10.0,64,0.00,,OVC095,0.00,VWS V14.01,2013-01-11 03:37:00,
2013-01-10 22:42:00,39.5,28.0,30.30,SSE,166,4.0,10.0,63,0.00,,OVC095,0.00,VWS V14.01,2013-01-11 03:42:00,
2013-01-10 22:47:00,39.6,28.1,30.29,SE,140,7.0,10.0,63,0.00,,OVC095,0.00,VWS V14.01,2013-01-11 03:47:00,
2013-01-10 22:52:00,39.6,28.4,30.28,ESE,117,3.0,10.0,64,0.00,,OVC095,0.00,VWS V14.01,2013-01-11 03:52:00,
2013-01-10 22:58:00,39.6,28.1,30.28,SE,137,3.0,10.0,63,0.00,,OVC095,0.00,VWS V14.01,2013-01-11 03:58:00,
2013-01-10 23:03:00,39.7,28.1,30.28,SE,136,5.0,8.0,63,0.00,,OVC085,0.00,VWS V14.01,2013-01-11 04:03:00,
2013-01-10 23:08:00,39.8,28.6,30.27,SE,137,2.0,8.0,64,0.00,,OVC085,0.00,VWS V14.01,2013-01-11 04:08:00,
2013-01-10 23:13:00,39.8,28.2,30.27,East,91,6.0,13.0,63,0.00,,OVC085,0.00,VWS V14.01,2013-01-11 04:13:00,
2013-01-10 23:18:00,39.8,28.2,30.27,ENE,76,7.0,13.0,63,0.00,,OVC085,0.00,VWS V14.01,2013-01-11 04:18:00,
2013-01-10 23:23:00,39.7,28.5,30.26,SSE,150,1.0,13.0,64,0.00,,OVC085,0.00,VWS V14.01,2013-01-11 04:23:00,
2013-01-10 23:28:00,39.7,28.5,30.27,ESE,119,2.0,13.0,64,0.00,,OVC085,0.00,VWS V14.01,2013-01-11 04:28:00,
2013-01-10 23:33:00,39.7,28.5,30.27,SE,125,4.0,6.0,64,0.00,,OVC085,0.00,VWS V14.01,2013-01-11 04:33:00,
2013-01-10 23:38:00,39.8,28.6,30.26,ENE,76,2.0,7.0,64,0.00,,OVC085,0.00,VWS V14.01,2013-01-11 04:38:00,
2013-01-10 23:43:00,39.9,28.7,30.26,SSE,166,2.0,7.0,64,0.00,,OVC085,0.00,VWS V14.01,2013-01-11 04:43:00,
2013-01-10 23:49:00,40.0,28.8,30.26,SE,141,3.0,7.0,64,0.00,,OVC085,0.00,VWS V14.01,2013-01-11 04:49:00,
2013-01-10 23:54:00,40.0,28.8,30.26,SE,142,5.0,9.0,64,0.00,,OVC085,0.00,VWS V14.01,2013-01-11 04:54:00,
2013-01-10 23:59:00,40.0,28.8,30.25,SSE,161,6.0,11.0,64,0.00,,OVC085,0.00,VWS V14.01,2013-01-11 04:59:00,